Location: Unspecified
(41.5516°N, 88.1098°W)
Time: 02:44:46
(UTC-05:00)

Okean 3 - Visible Passes

Search period start: 27 July 2016 00:00
Search period end: 06 August 2016 00:00
Orbit: 579 x 602 km, 82.5° (Epoch: 26 July)

Date Brightness Start Highest point End Pass type
(mag) Time Alt. Az. Time Alt. Az. Time Alt. Az.
27 Jul 3.6 21:25:04 10° N 21:29:17 58° E 21:32:25 17° SSE visible
27 Jul 6.3 23:04:41 10° WNW 23:06:00 11° W 23:07:17 10° W visible
28 Jul 3.4 21:33:30 10° N 21:37:48 89° E 21:41:10 16° S visible
29 Jul 4.0 21:42:03 10° NNW 21:46:16 59° W 21:49:57 13° S visible
30 Jul 4.8 21:50:43 10° NNW 21:54:40 38° W 21:58:35 10° SSW visible
31 Jul 5.5 21:59:32 10° NNW 22:03:03 25° W 22:06:31 10° SW visible
01 Aug 6.1 22:08:37 10° NW 22:11:23 17° W 22:14:07 10° SW visible
02 Aug 3.6 20:38:46 10° N 20:42:59 57° E 20:47:08 10° SSE visible
02 Aug 6.4 22:18:25 10° WNW 22:19:40 11° W 22:20:55 10° W visible
03 Aug 3.5 20:47:12 10° N 20:51:28 89° ENE 20:55:41 10° S visible
04 Aug 4.1 20:55:44 10° NNW 20:59:55 59° W 21:04:04 10° S visible
05 Aug 4.9 21:04:25 10° NNW 21:08:21 38° W 21:12:14 10° SSW visible
